[[{"header":{"parameterUnit":"m.s-1","parameterCategory":1,"la1":30.2991,"la2":30.254,"lo1":-89.0895,"lo2":-89.0444,"dy":0.0017,"dx":0.0017,"nx":28,"ny":28,"refTime":"2023-10-31T03:00:00:Z","depth":0,"parameterNumber":2,"parameterNumberName":"U-component_of_WINDS"},"data":[0,0,0,0,0,0,0,0,0,0,0,0,0,0,0,0,0,0,0,0,0,0,0,0,0,0,0,0,0,0,0,0,0,0,0,0,0,0,0,0,0,0,0,0,0,0,0,0,0,0,0,0,0,0,0,0,0,0,-0.009,-0.009,0,-0.0077,-0.0077,-0.0077,-0.0049,-0.0048,-0.0048,-0.0047,-0.0035,-0.0035,-0.0035,0,0,0,0,0,0,0,0,0,0,0,0,0,-0.0091,-0.0091,-0.009,-0.009,-0.009,-0.0077,-0.0077,-0.0077,-0.0049,-0.0048,-0.0048,-0.0047,-0.0035,-0.0035,-0.0035,0,0,0,0,0,0,0,0,0,0,0,0,0,-0.0086,-0.0092,-0.009,-0.0075,-0.0073,-0.0077,-0.0077,-0.0077,-0.0049,-0.0048,-0.0047,-0.0047,-0.0035,-0.0035,-0.0036,-0.0054,0,0,-0.0036,-0.0037,0,0,0,0,0,0,0,0,-0.0086,-0.0086,-0.0077,-0.0076,-0.0074,-0.0064,-0.0073,-0.0069,-0.0049,-0.0058,-0.0047,-0.0046,-0.0045,-0.0045,-0.0044,-0.0054,-0.0053,-0.0036,-0.0037,-0.0037,-0.0037,0,0,0,0,0,0,0,-0.0087,-0.0086,-0.0085,-0.0077,-0.0075,-0.0068,-0.0066,-0.0072,-0.0057,-0.0057,-0.0055,-0.0054,-0.0044,-0.0044,-0.0044,-0.0053,-0.0036,-0.0037,-0.0037,-0.0037,-0.0075,-0.0076,0,0,0,0,0,0,-0.0089,-0.0087,-0.0086,-0.0085,-0.0078,-0.0069,-0.0067,-0.0068,-0.0057,-0.0054,-0.0055,-0.0053,-0.0044,-0.0043,-0.0043,-0.0063,-0.0037,-0.0037,-0.0037,-0.0074,-0.0075,-0.0076,0,0,0,0,0,0,-0.0089,-0.0089,-0.0086,-0.0085,-0.0084,-0.0069,-0.0071,-0.0068,-0.0068,-0.0055,-0.0052,-0.0057,-0.0043,-0.0043,-0.0051,-0.0063,-0.0037,-0.0038,-0.0073,-0.0075,-0.0076,-0.0105,0,0,0,0,0,0,-0.0089,-0.009,-0.0097,-0.0085,-0.0084,-0.0095,-0.0072,-0.0068,-0.0068,-0.0065,-0.0056,-0.0054,-0.0042,-0.0051,-0.0051,-0.0063,-0.0038,-0.0072,-0.0074,-0.0075,-0.0103,-0.0107,-0.011,0,0,0,0,0,-0.009,-0.0107,-0.0098,-0.0098,-0.0093,-0.0095,-0.0095,-0.0081,-0.0069,-0.0076,-0.0067,-0.0054,-0.0061,-0.0052,-0.0052,-0.0064,-0.0072,-0.0073,-0.0075,-0.0101,-0.0106,-0.011,0,0,0,0,0,0,-0.0121,-0.0105,-0.0095,-0.0108,-0.0103,-0.0091,-0.01,-0.0087,-0.0086,-0.0083,-0.0066,-0.0065,-0.0075,-0.007,-0.006,-0.008,-0.0064,-0.0066,-0.0083,-0.0088,-0.0092,-0.0093,-0.0038,0,0,0,0,0,-0.0129,-0.0133,-0.0118,-0.0132,-0.0129,-0.0115,-0.0115,-0.0105,-0.0099,-0.0097,-0.0089,-0.0084,-0.0085,-0.0086,-0.0086,-0.0101,-0.0098,-0.0109,-0.0113,-0.0116,-0.0118,-0.0124,-0.0129,-0.0082,-0.0082,-0.0082,0,0,-0.0147,-0.0139,-0.0142,-0.0138,-0.0132,-0.0136,-0.0113,-0.0118,-0.012,-0.0098,-0.0105,-0.0099,-0.0092,-0.0103,-0.0108,-0.01,-0.013,-0.0118,-0.0121,-0.0122,-0.0127,-0.0131,-0.0135,-0.0084,-0.0083,-0.0083,0,0,-0.0182,-0.0175,-0.0185,-0.018,-0.0172,-0.0161,-0.0163,-0.0152,-0.0146,-0.0153,-0.0136,-0.0138,-0.014,-0.0135,-0.0133,-0.0162,-0.015,-0.0162,-0.0183,-0.0189,-0.0193,-0.0196,-0.0205,-0.0209,-0.0164,-0.0165,-0.0165,0,-0.0205,-0.0209,-0.0192,-0.0197,-0.0195,-0.0173,-0.0183,-0.0178,-0.0171,-0.017,-0.016,-0.0161,-0.0155,-0.0164,-0.0171,-0.017,-0.0172,-0.0164,-0.0193,-0.0196,-0.0199,-0.0208,-0.0212,-0.0166,-0.0166,-0.0166,-0.0166,0,-0.0238,-0.0241,-0.0249,-0.0241,-0.024,-0.0248,-0.0231,-0.0232,-0.022,-0.0211,-0.0217,-0.0208,-0.0206,-0.0207,-0.0196,-0.0214,-0.0209,-0.0196,-0.018,-0.0205,-0.0214,-0.0217,-0.0168,-0.0168,-0.0167,-0.0167,0,0,-0.0294,-0.0274,-0.0278,-0.0273,-0.0261,-0.0263,-0.0268,-0.0264,-0.0265,-0.026,-0.0264,-0.0264,-0.0252,-0.0249,-0.0238,-0.0243,-0.0265,-0.023,-0.0229,-0.0237,-0.0283,-0.0293,-0.0297,-0.0256,-0.0257,-0.0257,-0.0283,0,-0.0326,-0.0334,-0.0318,-0.033,-0.0332,-0.0309,-0.0313,-0.0306,-0.0297,-0.0296,-0.0286,-0.0286,-0.027,-0.0268,-0.0272,-0.0262,-0.0274,-0.0259,-0.026,-0.026,-0.0263,-0.0302,-0.0313,-0.0338,-0.0286,-0.0287,-0.0287,0,-0.0365,-0.036,-0.0372,-0.0357,-0.0357,-0.0362,-0.0356,-0.0356,-0.0346,-0.0338,-0.0334,-0.032,-0.0323,-0.0306,-0.031,-0.03,-0.0299,-0.0293,-0.0294,-0.0294,-0.0276,-0.0303,-0.0346,-0.035,-0.0292,-0.0292,-0.0292,0,-0.0405,-0.0401,-0.0407,-0.0404,-0.0387,-0.039,-0.0383,-0.0372,-0.037,-0.0365,-0.0363,-0.0358,-0.0356,-0.0352,-0.0336,-0.0325,-0.0342,-0.0324,-0.0336,-0.0336,-0.0342,-0.0342,-0.0385,-0.034,-0.034,-0.0339,-0.0339,0,-0.0443,-0.0451,-0.0425,-0.0429,-0.0437,-0.0416,-0.0425,-0.0415,-0.0406,-0.0407,-0.0387,-0.0388,-0.0367,-0.0366,-0.0353,-0.0358,-0.0357,-0.0351,-0.0348,-0.0353,-0.0354,-0.0353,-0.0351,-0.034,-0.034,-0.034,-0.034,0,-0.0489,-0.0472,-0.0477,-0.0459,-0.0455,-0.0461,-0.0446,-0.0448,-0.0436,-0.0438,-0.0437,-0.0418,-0.0416,-0.0399,-0.0393,-0.0384,-0.0394,-0.0387,-0.0397,-0.0395,-0.0407,-0.0407,-0.0452,-0.0457,-0.0408,-0.0409,-0.0409,0,-0.0515,-0.0521,-0.0502,-0.0501,-0.0495,-0.0494,-0.0491,-0.047,-0.0468,-0.0456,-0.0459,-0.0455,-0.045,-0.0447,-0.0433,-0.0428,-0.042,-0.0437,-0.042,-0.0424,-0.0421,-0.0421,-0.0421,-0.0441,-0.0442,-0.0442,-0.0442,0,-0.0563,-0.0553,-0.0549,-0.0542,-0.0539,-0.0532,-0.0525,-0.0525,-0.0502,-0.05,-0.0497,-0.0493,-0.0485,-0.0481,-0.0473,-0.0465,-0.045,-0.0447,-0.045,-0.0456,-0.0462,-0.0458,-0.0407,-0.0447,-0.0447,-0.0446,-0.0446,-0.0446,-0.06,-0.0603,-0.059,-0.0586,-0.0577,-0.057,-0.0571,-0.0557,-0.0554,-0.0546,-0.0533,-0.0531,-0.0519,-0.0506,-0.0499,-0.0497,-0.0488,-0.0492,-0.0493,-0.0494,-0.0497,-0.0461,-0.0495,-0.0495,-0.0495,-0.0495,-0.0495,0,-0.0646,-0.0636,-0.0632,-0.0621,-0.0617,-0.0601,-0.0591,-0.0589,-0.0588,-0.0577,-0.0572,-0.0567,-0.0562,-0.0546,-0.0539,-0.054,-0.0533,-0.0539,-0.0539,-0.0537,-0.0505,-0.0504,-0.0545,-0.0545,-0.0545,-0.0545,-0.0545,-0.0545,-0.067,-0.0674,-0.0662,-0.0661,-0.065,-0.0647,-0.0643,-0.0635,-0.0627,-0.0622,-0.0617,-0.0606,-0.0593,-0.0584,-0.0578,-0.0573,-0.0572,-0.058,-0.0573,-0.0544,-0.054,-0.0535,-0.0534,-0.058,-0.058,-0.0605,-0.0605,-0.0606]},{"header":{"parameterUnit":"m.s-1","parameterCategory":1,"la1":30.2991,"la2":30.254,"lo1":-89.0895,"lo2":-89.0444,"dy":0.0017,"dx":0.0017,"nx":28,"ny":28,"refTime":"2023-10-31T03:00:00:Z","depth":0,"parameterNumber":3,"parameterNumberName":"V-component_of_WINDS"},"data":[0,0,0,0,0,0,0,0,0,0,0,0,0,0,0,0,0,0,0,0,0,0,0,0,0,0,0,0,0,0,0,0,0,0,0,0,0,0,0,0,0,0,0,0,0,0,0,0,0,0,0,0,0,0,0,0,0,0,-8.2944,-8.2945,0,-8.3108,-8.311,-8.3112,-8.3052,-8.3048,-8.3045,-8.3041,-8.3203,-8.3211,-8.3219,0,0,0,0,0,0,0,0,0,0,0,0,0,-8.2572,-8.2579,-8.2943,-8.2946,-8.2948,-8.3108,-8.311,-8.3112,-8.3053,-8.3048,-8.3044,-8.3039,-8.3201,-8.321,-8.3219,0,0,0,0,0,0,0,0,0,0,0,0,0,-8.2735,-8.2581,-8.2943,-8.2937,-8.2938,-8.3107,-8.311,-8.3113,-8.3054,-8.3048,-8.3042,-8.3037,-8.3198,-8.3209,-8.3221,-8.3403,0,0,-8.3256,-8.3261,0,0,0,0,0,0,0,0,-8.2725,-8.2748,-8.2936,-8.2938,-8.294,-8.3054,-8.3039,-8.321,-8.3055,-8.301,-8.3041,-8.3035,-8.3158,-8.3172,-8.3215,-8.3411,-8.3418,-8.3257,-8.3264,-8.3269,-8.3273,0,0,0,0,0,0,0,-8.2714,-8.2741,-8.3008,-8.2939,-8.2941,-8.2925,-8.2942,-8.3071,-8.3112,-8.3013,-8.3009,-8.303,-8.3158,-8.3204,-8.3218,-8.342,-8.3257,-8.3267,-8.3274,-8.3279,-8.3774,-8.378,0,0,0,0,0,0,-8.2703,-8.2732,-8.3003,-8.3013,-8.2817,-8.2936,-8.2955,-8.3023,-8.3111,-8.3119,-8.3034,-8.3026,-8.3187,-8.3205,-8.3224,-8.3444,-8.3269,-8.328,-8.3287,-8.3768,-8.3775,-8.3782,0,0,0,0,0,0,-8.2695,-8.2728,-8.2996,-8.2872,-8.2905,-8.2948,-8.3025,-8.3029,-8.3075,-8.3127,-8.3134,-8.3075,-8.3183,-8.3208,-8.336,-8.3449,-8.3285,-8.3296,-8.3761,-8.377,-8.3779,-8.3886,0,0,0,0,0,0,-8.2685,-8.2725,-8.2797,-8.2874,-8.2912,-8.3132,-8.303,-8.3036,-8.3096,-8.3088,-8.3167,-8.3174,-8.3181,-8.3343,-8.3371,-8.3462,-8.3305,-8.3753,-8.3765,-8.3776,-8.3875,-8.3898,-8.3918,0,0,0,0,0,-8.2672,-8.2819,-8.28,-8.2834,-8.3002,-8.3137,-8.3158,-8.3165,-8.3104,-8.3175,-8.3208,-8.3172,-8.3435,-8.3359,-8.339,-8.3486,-8.3747,-8.3762,-8.3775,-8.3865,-8.3893,-8.3917,0,0,0,0,0,0,-8.2748,-8.2829,-8.2809,-8.2986,-8.3056,-8.3127,-8.3217,-8.3194,-8.328,-8.3268,-8.327,-8.3288,-8.3445,-8.348,-8.3395,-8.3668,-8.3582,-8.3602,-8.3639,-8.3667,-8.3688,-8.3676,-8.3315,0,0,0,0,0,-8.2786,-8.2891,-8.2955,-8.3104,-8.3141,-8.3173,-8.3232,-8.3231,-8.3302,-8.333,-8.3374,-8.3443,-8.3541,-8.3605,-8.3698,-8.3879,-8.3895,-8.3961,-8.3982,-8.3999,-8.4018,-8.4116,-8.4146,-8.3828,-8.3828,-8.3827,0,0,-8.2865,-8.2922,-8.2987,-8.3121,-8.3175,-8.3282,-8.3198,-8.3314,-8.3394,-8.3347,-8.3495,-8.3529,-8.3606,-8.3774,-8.3849,-8.3808,-8.4109,-8.4017,-8.4031,-8.404,-8.4134,-8.4164,-8.4191,-8.3837,-8.3835,-8.3834,0,0,-8.3063,-8.3117,-8.3248,-8.3304,-8.3387,-8.3408,-8.3439,-8.3515,-8.3537,-8.3685,-8.3653,-8.3745,-8.3914,-8.3971,-8.4021,-8.4242,-8.4211,-8.4271,-8.4384,-8.448,-8.4505,-8.4527,-8.4606,-8.4635,-8.4289,-8.429,-8.429,0,-8.315,-8.3312,-8.3318,-8.3438,-8.3498,-8.3463,-8.3595,-8.3648,-8.3757,-8.3798,-8.375,-8.3962,-8.4011,-8.4191,-8.4246,-8.4287,-8.4323,-8.4263,-8.4501,-8.4524,-8.4545,-8.462,-8.465,-8.4296,-8.4296,-8.4295,-8.4294,0,-8.3415,-8.3528,-8.3623,-8.3732,-8.3802,-8.3928,-8.3951,-8.4021,-8.4014,-8.4039,-8.419,-8.4247,-8.4352,-8.4394,-8.4387,-8.4575,-8.4546,-8.45,-8.4414,-8.4582,-8.4653,-8.4682,-8.4306,-8.4304,-8.4302,-8.43,0,0,-8.3666,-8.3777,-8.3812,-8.3862,-8.3951,-8.4037,-8.4161,-8.4265,-8.4325,-8.4401,-8.4504,-8.4648,-8.4606,-8.4664,-8.4663,-8.4747,-8.4919,-8.4691,-8.4692,-8.4732,-8.5129,-8.5164,-8.5197,-8.4899,-8.4905,-8.4909,-8.5123,0,-8.3873,-8.4092,-8.4101,-8.43,-8.4405,-8.4373,-8.448,-8.4546,-8.4573,-8.4663,-8.4691,-8.4794,-8.4731,-8.4766,-8.4848,-8.4881,-8.4999,-8.4865,-8.4994,-8.4999,-8.4977,-8.5234,-8.5272,-8.547,-8.515,-8.5155,-8.5158,0,-8.4143,-8.423,-8.4441,-8.4516,-8.456,-8.4657,-8.4754,-8.4841,-8.4914,-8.4928,-8.4993,-8.498,-8.5104,-8.5013,-8.5185,-8.5094,-8.5146,-8.5171,-8.5178,-8.5191,-8.5089,-8.5255,-8.5534,-8.5564,-8.5202,-8.5199,-8.5195,0,-8.4306,-8.4476,-8.4624,-8.4667,-8.4758,-8.4827,-8.4868,-8.4936,-8.4998,-8.5082,-8.5122,-8.5218,-8.5271,-8.5345,-8.5357,-8.529,-8.5529,-8.5439,-8.5543,-8.5543,-8.5596,-8.5592,-8.5888,-8.5629,-8.5628,-8.5627,-8.5627,0,-8.4536,-8.4666,-8.4699,-8.479,-8.4935,-8.4943,-8.5085,-8.512,-8.5181,-8.5278,-8.5255,-8.5345,-8.5356,-8.5449,-8.5459,-8.5599,-8.5623,-8.5636,-8.5638,-8.5639,-8.5638,-8.5674,-8.5661,-8.5635,-8.5634,-8.5632,-8.5631,0,-8.4744,-8.4771,-8.4931,-8.5005,-8.5026,-8.513,-8.5192,-8.5279,-8.5303,-8.5425,-8.5454,-8.5492,-8.56,-8.562,-8.5747,-8.5754,-8.5922,-8.5908,-8.5898,-8.5897,-8.6,-8.599,-8.633,-8.6376,-8.6086,-8.6088,-8.6091,0,-8.4889,-8.4989,-8.5075,-8.5139,-8.5184,-8.5287,-8.5352,-8.5362,-8.543,-8.5521,-8.5597,-8.5703,-8.5789,-8.5963,-8.6001,-8.6097,-8.6087,-8.6199,-8.6101,-8.61,-8.6089,-8.6084,-8.6094,-8.6218,-8.6221,-8.6224,-8.6226,0,-8.5145,-8.5154,-8.5249,-8.5349,-8.5427,-8.5506,-8.558,-8.5633,-8.5654,-8.573,-8.5842,-8.5909,-8.604,-8.6146,-8.6242,-8.6282,-8.6258,-8.6257,-8.6286,-8.6289,-8.6279,-8.6287,-8.5951,-8.6249,-8.6247,-8.6245,-8.6244,-8.6243,-8.5327,-8.5414,-8.5489,-8.5595,-8.5653,-8.5723,-8.5809,-8.5845,-8.5939,-8.6049,-8.6048,-8.6171,-8.6241,-8.6369,-8.6415,-8.6509,-8.6473,-8.6515,-8.6526,-8.6537,-8.6547,-8.6264,-8.6526,-8.6526,-8.6525,-8.6525,-8.6524,0,-8.5582,-8.5629,-8.5727,-8.5833,-8.5917,-8.5888,-8.5969,-8.6041,-8.615,-8.6218,-8.6304,-8.6432,-8.6535,-8.6581,-8.6681,-8.6748,-8.674,-8.6774,-8.677,-8.6779,-8.6573,-8.6538,-8.678,-8.678,-8.6779,-8.6779,-8.6779,-8.6779,-8.5725,-8.5872,-8.589,-8.6065,-8.611,-8.6232,-8.6281,-8.6345,-8.64,-8.6546,-8.6632,-8.6662,-8.6721,-8.6826,-8.6918,-8.6929,-8.6967,-8.7007,-8.7013,-8.6819,-8.6794,-8.6769,-8.6736,-8.7015,-8.7016,-8.7211,-8.7213,-8.7214]}]]